When you browse on this site, cookies collect data to enhance your experience and personalize the content and advertising you see.
Visit our Privacy Policy to learn more. By continuing to use the site, you agree to this use of cookies and data.
  • în România
  • Lista ţărilor
  • Pe 7 zile
  • Temperatura apei
  • Meteo pe hartă
  • Widget-uri
  • user-avatar
    Intrare

    Meteo pe oră la Nachiczewan

    Astăzi, 17 Ianuarie, Vineri

    Timp Temperatura Precipitaţii Vânt Presiune Umiditate
    00:00 -2°C° 0 mm 0 m/s 696 mmHg 85%
    01:00 -2°C° 0.1 mm 0 m/s 695 mmHg 87%
    02:00 -2°C° 0.1 mm 0 m/s 695 mmHg 90%
    03:00 -3°C° 0 mm 0 m/s 694 mmHg 91%
    04:00 -4°C° 0 mm 0 m/s 693 mmHg 91%
    05:00 -4°C° 0 mm 0 m/s 693 mmHg 91%
    06:00 -4°C° 0 mm 0 m/s 693 mmHg 90%
    07:00 -3°C° 0 mm 0 m/s 693 mmHg 89%
    08:00 -3°C° 0 mm 0 m/s 693 mmHg 87%
    09:00 -2°C° 0 mm 0 m/s 693 mmHg 84%
    10:00 -2°C° 0 mm 0 m/s 692 mmHg 83%
    11:00 -2°C° 0 mm 0 m/s 691 mmHg 82%
    12:00 -1°C° 0 mm 0 m/s 690 mmHg 81%
    13:00 0°C° 0 mm 1 m/s 690 mmHg 83%
    14:00 0°C° 0 mm 1 m/s 689 mmHg 84%
    15:00 +1°C° 0 mm 1 m/s 689 mmHg 85%
    16:00 0°C° 0.1 mm 1 m/s 689 mmHg 88%
    17:00 0°C° 0.1 mm 1 m/s 689 mmHg 91%
    18:00 -1°C° 0.1 mm 1 m/s 689 mmHg 94%
    19:00 -1°C° 0.2 mm 1 m/s 688 mmHg 94%
    20:00 -1°C° 0.2 mm 1 m/s 688 mmHg 94%
    21:00 -1°C° 0.2 mm 1 m/s 688 mmHg 94%
    22:00 -1°C° 0.3 mm 1 m/s 688 mmHg 94%
    23:00 -1°C° 0.3 mm 1 m/s 688 mmHg 94%

    Mâine, 18 Ianuarie, Sâmbătă

    Timp Temperatura Precipitaţii Vânt Presiune Umiditate
    00:00 -1°C° 0.3 mm 1 m/s 687 mmHg 94%
    01:00 -1°C° 0.2 mm 1 m/s 687 mmHg 93%
    02:00 -1°C° 0.2 mm 1 m/s 687 mmHg 93%
    03:00 -2°C° 0.2 mm 1 m/s 686 mmHg 92%
    04:00 -2°C° 0 mm 1 m/s 686 mmHg 91%
    05:00 -2°C° 0 mm 1 m/s 686 mmHg 90%
    06:00 -3°C° 0 mm 1 m/s 685 mmHg 90%
    07:00 -2°C° 0.1 mm 1 m/s 686 mmHg 89%
    08:00 -2°C° 0.1 mm 1 m/s 686 mmHg 88%
    09:00 -2°C° 0.1 mm 1 m/s 686 mmHg 87%
    10:00 -2°C° 0.1 mm 1 m/s 686 mmHg 85%
    11:00 -1°C° 0.1 mm 1 m/s 685 mmHg 84%
    12:00 -1°C° 0.1 mm 1 m/s 685 mmHg 83%
    13:00 -1°C° 0 mm 1 m/s 685 mmHg 82%
    14:00 -1°C° 0 mm 1 m/s 685 mmHg 82%
    15:00 0°C° 0 mm 1 m/s 685 mmHg 82%
    16:00 -1°C° 0 mm 1 m/s 685 mmHg 84%
    17:00 -2°C° 0 mm 0 m/s 685 mmHg 86%
    18:00 -3°C° 0 mm 0 m/s 685 mmHg 88%
    19:00 -3°C° 0 mm 0 m/s 685 mmHg 89%
    20:00 -3°C° 0 mm 0 m/s 685 mmHg 90%
    21:00 -3°C° 0 mm 0 m/s 686 mmHg 91%
    22:00 -3°C° 0.2 mm 0 m/s 686 mmHg 93%
    23:00 -3°C° 0.2 mm 0 m/s 686 mmHg 94%

    Poimâine, 19 Ianuarie, Duminică

    Timp Temperatura Precipitaţii Vânt Presiune Umiditate
    00:00 -3°C° 0.2 mm 0 m/s 686 mmHg 96%
    01:00 -3°C° 0.2 mm 0 m/s 686 mmHg 96%
    02:00 -3°C° 0.2 mm 0 m/s 686 mmHg 96%
    03:00 -3°C° 0.2 mm 0 m/s 686 mmHg 96%
    04:00 -3°C° 0.2 mm 0 m/s 686 mmHg 96%
    05:00 -3°C° 0.2 mm 0 m/s 686 mmHg 96%
    06:00 -3°C° 0.2 mm 0 m/s 686 mmHg 96%
    07:00 -3°C° 0.1 mm 0 m/s 687 mmHg 95%
    08:00 -3°C° 0.1 mm 0 m/s 687 mmHg 94%
    09:00 -2°C° 0.1 mm 0 m/s 688 mmHg 93%
    10:00 -2°C° 0 mm 0 m/s 687 mmHg 92%
    11:00 -2°C° 0 mm 0 m/s 687 mmHg 91%
    12:00 -1°C° 0 mm 0 m/s 687 mmHg 89%
    13:00 -1°C° 0 mm 0 m/s 687 mmHg 88%
    14:00 -1°C° 0 mm 0 m/s 687 mmHg 88%
    15:00 0°C° 0 mm 0 m/s 687 mmHg 87%
    16:00 -1°C° 0 mm 0 m/s 687 mmHg 88%
    17:00 -2°C° 0 mm 0 m/s 688 mmHg 89%
    18:00 -2°C° 0 mm 0 m/s 688 mmHg 89%
    19:00 -2°C° 0 mm 0 m/s 688 mmHg 89%
    20:00 -3°C° 0 mm 0 m/s 689 mmHg 88%
    21:00 -3°C° 0 mm 0 m/s 689 mmHg 87%
    22:00 -3°C° 0 mm 0 m/s 689 mmHg 87%
    23:00 -2°C° 0 mm 1 m/s 689 mmHg 87%

    20 Ianuarie, Luni

    Timp Temperatura Precipitaţii Vânt Presiune Umiditate
    00:00 -2°C° 0 mm 1 m/s 690 mmHg 87%
    01:00 -2°C° 0 mm 1 m/s 690 mmHg 87%
    02:00 -3°C° 0 mm 0 m/s 690 mmHg 87%
    03:00 -3°C° 0 mm 0 m/s 690 mmHg 87%
    04:00 -3°C° 0 mm 0 m/s 690 mmHg 87%
    05:00 -3°C° 0 mm 0 m/s 690 mmHg 88%
    06:00 -3°C° 0 mm 0 m/s 690 mmHg 88%
    07:00 -3°C° 0 mm 0 m/s 690 mmHg 88%
    08:00 -2°C° 0 mm 0 m/s 691 mmHg 88%
    09:00 -2°C° 0 mm 0 m/s 691 mmHg 87%
    10:00 -1°C° 0 mm 0 m/s 691 mmHg 87%
    11:00 -1°C° 0 mm 0 m/s 690 mmHg 87%
    12:00 -1°C° 0 mm 0 m/s 690 mmHg 87%
    13:00 0°C° 0 mm 0 m/s 690 mmHg 87%
    14:00 0°C° 0 mm 0 m/s 689 mmHg 86%
    15:00 0°C° 0 mm 0 m/s 689 mmHg 86%
    16:00 -1°C° 0 mm 0 m/s 689 mmHg 87%
    17:00 -1°C° 0 mm 0 m/s 690 mmHg 89%
    18:00 -2°C° 0 mm 0 m/s 690 mmHg 90%
    19:00 -2°C° 0 mm 0 m/s 690 mmHg 90%
    20:00 -2°C° 0 mm 0 m/s 690 mmHg 89%
    21:00 -2°C° 0 mm 0 m/s 690 mmHg 89%
    22:00 -2°C° 0 mm 0 m/s 690 mmHg 89%
    23:00 -3°C° 0 mm 0 m/s 690 mmHg 90%

    21 Ianuarie, Marţi

    Timp Temperatura Precipitaţii Vânt Presiune Umiditate
    00:00 -3°C° 0 mm 0 m/s 690 mmHg 90%
    01:00 -3°C° 0 mm 0 m/s 690 mmHg 91%
    02:00 -3°C° 0 mm 0 m/s 690 mmHg 93%
    03:00 -3°C° 0 mm 0 m/s 690 mmHg 94%
    04:00 -3°C° 0.1 mm 0 m/s 690 mmHg 95%
    05:00 -3°C° 0.1 mm 0 m/s 690 mmHg 95%
    06:00 -3°C° 0.1 mm 0 m/s 690 mmHg 96%
    07:00 -3°C° 0.1 mm 0 m/s 690 mmHg 95%
    08:00 -2°C° 0.1 mm 0 m/s 690 mmHg 94%
    09:00 -2°C° 0.1 mm 0 m/s 690 mmHg 93%
    10:00 -2°C° 0.1 mm 0 m/s 690 mmHg 91%
    11:00 -1°C° 0.1 mm 0 m/s 689 mmHg 90%
    12:00 0°C° 0.1 mm 1 m/s 689 mmHg 89%
    13:00 0°C° 0 mm 1 m/s 689 mmHg 87%
    14:00 +1°C° 0 mm 1 m/s 689 mmHg 86%
    15:00 +1°C° 0 mm 1 m/s 688 mmHg 84%
    16:00 0°C° 0 mm 1 m/s 689 mmHg 85%
    17:00 -1°C° 0 mm 0 m/s 689 mmHg 86%
    18:00 -1°C° 0 mm 0 m/s 690 mmHg 87%
    19:00 -1°C° 0 mm 0 m/s 690 mmHg 87%
    20:00 -2°C° 0 mm 0 m/s 690 mmHg 87%
    21:00 -2°C° 0 mm 0 m/s 691 mmHg 86%
    22:00 -2°C° 0 mm 0 m/s 691 mmHg 86%
    23:00 -2°C° 0 mm 0 m/s 691 mmHg 86%

    22 Ianuarie, Miercuri

    Timp Temperatura Precipitaţii Vânt Presiune Umiditate
    00:00 -2°C° 0 mm 0 m/s 691 mmHg 85%
    01:00 -2°C° 0 mm 0 m/s 691 mmHg 85%
    02:00 -2°C° 0 mm 0 m/s 691 mmHg 84%
    03:00 -3°C° 0 mm 0 m/s 691 mmHg 84%
    04:00 -3°C° 0 mm 0 m/s 691 mmHg 84%
    05:00 -3°C° 0 mm 0 m/s 691 mmHg 84%
    06:00 -3°C° 0 mm 0 m/s 691 mmHg 84%
    07:00 -3°C° 0 mm 0 m/s 691 mmHg 83%
    08:00 -2°C° 0 mm 1 m/s 692 mmHg 81%
    09:00 -1°C° 0 mm 1 m/s 692 mmHg 80%
    10:00 -1°C° 0 mm 1 m/s 691 mmHg 76%
    11:00 0°C° 0 mm 1 m/s 691 mmHg 73%
    12:00 +1°C° 0 mm 1 m/s 690 mmHg 70%
    13:00 +1°C° 0 mm 1 m/s 690 mmHg 68%
    14:00 +1°C° 0 mm 1 m/s 689 mmHg 67%
    15:00 +1°C° 0 mm 1 m/s 689 mmHg 66%
    16:00 0°C° 0 mm 1 m/s 689 mmHg 69%
    17:00 -1°C° 0 mm 1 m/s 689 mmHg 72%
    18:00 -2°C° 0 mm 1 m/s 689 mmHg 74%
    19:00 -3°C° 0 mm 0 m/s 689 mmHg 73%
    20:00 -3°C° 0 mm 0 m/s 689 mmHg 72%
    21:00 -3°C° 0 mm 0 m/s 689 mmHg 71%
    22:00 -3°C° 0 mm 0 m/s 688 mmHg 71%
    23:00 -4°C° 0 mm 0 m/s 688 mmHg 71%
    Arată mai mult